Home   Weather   Leibnitz   Past weeks

Flag for Austria Past Weather in Leibnitz, Styria, Austria — Yesterday and Last 2 Weeks

53 °F


Feels Like: N/A
Forecast: 39 / 54 °F
Wind: N/A

Location: Graz-Thalerhof-Flughafen

Current Time: Oct 26, 2016 at 11:37:46 PM

Latest Report: Oct 26, 2016 at 10:00 PM

Visibility: 14 mi

Pressure: 30.35 "Hg

Humidity: 87%

Dew Point: 49 °F

Location of LeibnitzLocation

Past Weather in Leibnitz — Graph


Leibnitz Temperature Yesterday

Maximum temperature yesterday: 67 °F (at 2:00 PM)
Minimum temperature yesterday: 45 °F (at 6:00 AM)
Average temperature yesterday: 56 °F

High & Low Weather Summary for the Past Weeks

High67 °F (Oct 25, 2:00 PM)100% (Oct 11, 11:00 PM)30.35 "Hg (Oct 11, 11:00 PM)
Low29 °F (Oct 13, 6:00 AM)44% (Oct 12, 3:00 PM)29.92 "Hg (Oct 12, 5:00 AM)
Average48 °F89%30.11 "Hg
* Reported Oct 11 10:00 PM — Oct 26 10:00 PM, Leibnitz, Weather by CustomWeather, © 2016

Note: Actual official high and low records may vary slightly from our data, if they occured in-between our weather recording intervals... More about our weather records


Leibnitz Weather History for the Previous 24 Hours

Scroll right to see more
Time TempWeatherWind HumidityBarometerVisibility
10:00 PM
Wed, Oct 26
53 °FOvercast.N/A87%30.35 "Hg14 mi
9:00 PM53 °FOvercast.N/A84%30.34 "Hg17 mi
8:00 PM54 °FOvercast.N/A81%30.32 "Hg11 mi
7:00 PM55 °FOvercast.N/A78%30.30 "Hg22 mi
6:00 PM56 °FOvercast.N/A89%30.28 "Hg7 mi
5:00 PM57 °FPartly sunny.N/A85%30.27 "Hg12 mi
4:00 PM59 °FPartly sunny.N/A81%30.27 "Hg8 mi
3:00 PM56 °FOvercast.N/A87%30.27 "Hg7 mi
2:00 PM57 °FPartly sunny.N/A84%30.27 "Hg9 mi
1:00 PM56 °FLight fog.N/A86%30.28 "Hg8 mi
12:00 PM56 °FLight fog.N/A87%30.29 "Hg8 mi
11:00 AM56 °FLow clouds.N/A91%30.27 "Hg6 mi
10:00 AM54 °FLow clouds.N/A96%30.27 "Hg3 mi
9:00 AM54 °FSprinkles. Low clouds.N/A96%30.26 "Hg2 mi
8:00 AM55 °FLight rain. Low clouds.N/A98%30.24 "Hg1 mi
7:00 AM55 °FLight rain. Low clouds.N/A98%30.22 "Hg1 mi
6:00 AM55 °FLight rain. Low clouds.N/A98%30.21 "Hg1 mi
5:00 AM54 °FLight rain. Overcast.N/A98%30.20 "Hg1 mi
4:00 AM55 °FOvercast.N/A98%30.19 "Hg1 mi
3:00 AM55 °FLight rain. Overcast.N/A98%30.19 "Hg2 mi
2:00 AM55 °FHeavy rain. Low clouds.N/A98%30.19 "Hg3 mi
1:00 AM56 °FHeavy rain. Overcast.N/A97%30.19 "Hg2 mi
12:00 AM56 °FLight rain. Low clouds.N/A95%30.18 "Hg5 mi
11:00 PM
Tue, Oct 25
56 °FHeavy rain. Overcast.N/A94%30.18 "Hg6 mi
Weather by CustomWeather, © 2016

See weather overviewHow to use our weather pages